Location: Bakhuizen
(52.8696°N, 5.4575°E)
Time: 23:12:35
(UTC+00:00)

Cosmos 1844 Rocket - Pass Details

Date: 11 May 2021
Orbit: 823 x 846 km, 71.0° (Epoch: 24 June)

Event Time Altitude Azimuth Distance (km) Brightness Sun altitude
Rises 20:22:54 0° 223° (SW) 3,351 5.8 -7.9°
Reaches altitude 10° 20:25:21 10° 227° (SW) 2,423 5.1 -8.1°
Maximum altitude 20:30:50 59° 307° (NW) 958 3.4 -8.7°
Drops below altitude 10° 20:36:22 10° 27° (NNE) 2,449 5.4 -9.3°
Sets 20:38:52 0° 31° (NNE) 3,389 6.1 -9.5°
